{"data":{"norad_id":68754,"epoch":"2026-05-24T22:35:53.962656Z","epoch_age_seconds":76499,"freshness":"FRESH","line1":"1 68754U 26083B   26144.94159679  .00001973  00000+0  13534-3 0  9994","line2":"2 68754  98.1196 292.5584 0012036 144.2977 215.9056 15.07262725  5726","mean_motion":15.07262725,"eccentricity":0.0012036,"inclination_deg":98.1196,"raan_deg":292.5584,"arg_perigee_deg":144.2977,"mean_anomaly_deg":215.9056,"bstar":0.00013534,"rev_number":572,"period_min":95.537425301883,"perigee_km":536.23652278052,"apogee_km":552.90085992074,"semimajor_km":6922.7056913506,"source":"CELESTRAK","updated_at":"2026-05-25T13:38:08.059544Z"}}